| time (UTC) | temp F | wind direction | speed knots | gust knots | rain 1hr in | rain 24hr in | rain mn in | humidity % | barometer mb |
| 20260906010529 | 60 | 237 | 2.6 | 7.0 | 0.00 | 0.00 | 0.00 | 76 | 1021.0 |
| 20260906005525 | 60 | 240 | 3.5 | 7.0 | 0.00 | 0.00 | 0.00 | 76 | 1020.9 |
| 20260906004521 | 60 | 238 | 3.5 | 8.7 | 0.00 | 0.00 | 0.00 | 76 | 1020.8 |
| 20260906003518 | 60 | 237 | 2.6 | 7.0 | 0.00 | 0.00 | 0.00 | 76 | 1020.7 |
| 20260906002554 | 60 | 238 | 2.6 | 4.3 | 0.00 | 0.00 | 0.00 | 77 | 1020.8 |
| 20260906001550 | 60 | 248 | 0.0 | 1.7 | 0.00 | 0.00 | 0.00 | 77 | 1020.8 |
| 20260906000527 | 60 | 233 | 0.0 | 1.7 | 0.00 | 0.00 | 0.00 | 76 | 1020.7 |
| 20260905235523 | 61 | 228 | 0.9 | 4.3 | 0.00 | 0.00 | 0.00 | 76 | 1020.7 |
| 20260905234519 | 61 | 237 | 3.5 | 7.0 | 0.00 | 0.00 | 0.00 | 76 | 1020.7 |
| 20260905233516 | 61 | 236 | 1.7 | 7.0 | 0.00 | 0.00 | 0.00 | 76 | 1020.7 |
| 20260905232552 | 61 | 234 | 2.6 | 7.0 | 0.00 | 0.00 | 0.00 | 75 | 1020.7 |
| 20260905231528 | 62 | 242 | 2.6 | 7.0 | 0.00 | 0.00 | 0.00 | 75 | 1020.6 |
| 20260905230525 | 62 | 245 | 3.5 | 7.0 | 0.00 | 0.00 | 0.00 | 75 | 1020.5 |
| 20260905225521 | 61 | 241 | 2.6 | 7.0 | 0.00 | 0.00 | 0.00 | 75 | 1020.5 |
| 20260905224517 | 61 | 240 | 3.5 | 7.0 | 0.00 | 0.00 | 0.00 | 76 | 1020.4 |
| 20260905223554 | 61 | 245 | 1.7 | 4.3 | 0.00 | 0.00 | 0.00 | 76 | 1020.5 |
| 20260905222530 | 61 | 241 | 1.7 | 7.0 | 0.00 | 0.00 | 0.00 | 76 | 1020.4 |
| 20260905221547 | 62 | 242 | 2.6 | 8.7 | 0.00 | 0.00 | 0.00 | 75 | 1020.4 |
| 20260905220603 | 62 | 246 | 2.6 | 7.0 | 0.00 | 0.00 | 0.00 | 76 | 1020.3 |
| 20260905215519 | 62 | 250 | 3.5 | 8.7 | 0.00 | 0.00 | 0.00 | 75 | 1020.3 |
| 20260905214516 | 63 | 245 | 5.2 | 8.7 | 0.00 | 0.00 | 0.00 | 74 | 1020.2 |
| 20260905213532 | 62 | 247 | 5.2 | 8.7 | 0.00 | 0.00 | 0.00 | 75 | 1020.1 |
| 20260905212528 | 62 | 248 | 4.3 | 8.7 | 0.00 | 0.00 | 0.00 | 76 | 1020.2 |
| 20260905211525 | 62 | 258 | 2.6 | 7.0 | 0.00 | 0.00 | 0.00 | 76 | 1020.2 |
| 20260905210521 | 60 | 240 | 1.7 | 4.3 | 0.00 | 0.00 | 0.00 | 77 | 1020.1 |
| 20260905205518 | 59 | 280 | 0.0 | 1.7 | 0.00 | 0.00 | 0.00 | 78 | 1020.0 |
| 20260905204554 | 59 | 0.0 | 0.0 | 0.00 | 0.00 | 0.00 | 78 | 1020.0 | |
| 20260905203611 | 59 | 0.0 | 0.0 | 0.00 | 0.00 | 0.00 | 78 | 1019.8 | |
| 20260905202527 | 62 | 171 | 0.0 | 4.3 | 0.00 | 0.00 | 0.00 | 76 | 1019.8 |
| 20260905201524 | 62 | 238 | 0.9 | 4.3 | 0.00 | 0.00 | 0.00 | 75 | 1019.7 |
| 20260905200520 | 63 | 241 | 2.6 | 7.0 | 0.00 | 0.00 | 0.00 | 75 | 1019.7 |
| 20260905195516 | 63 | 246 | 2.6 | 7.0 | 0.00 | 0.00 | 0.00 | 76 | 1019.6 |
| 20260905194533 | 61 | 236 | 0.9 | 4.3 | 0.00 | 0.00 | 0.00 | 78 | 1019.3 |
| 20260905193549 | 62 | 229 | 0.0 | 1.7 | 0.00 | 0.00 | 0.00 | 77 | 1019.4 |
| 20260905192545 | 62 | 239 | 1.7 | 4.3 | 0.00 | 0.00 | 0.00 | 77 | 1019.5 |
| 20260905191522 | 63 | 248 | 1.7 | 4.3 | 0.00 | 0.00 | 0.00 | 77 | 1019.3 |
| 20260905190518 | 63 | 244 | 0.9 | 1.7 | 0.00 | 0.00 | 0.00 | 77 | 1019.1 |
| 20260905185535 | 63 | 0.0 | 1.7 | 0.00 | 0.00 | 0.00 | 77 | 1018.9 | |
| 20260905184531 | 64 | 241 | 0.9 | 4.3 | 0.00 | 0.00 | 0.00 | 76 | 1018.7 |
| 20260905183607 | 64 | 237 | 1.7 | 7.0 | 0.00 | 0.00 | 0.00 | 76 | 1018.6 |
| 20260905182524 | 65 | 243 | 2.6 | 4.3 | 0.00 | 0.00 | 0.00 | 76 | 1018.4 |
| 20260905181520 | 65 | 240 | 3.5 | 7.0 | 0.00 | 0.00 | 0.00 | 76 | 1018.3 |
| 20260905180516 | 65 | 237 | 1.7 | 4.3 | 0.00 | 0.00 | 0.00 | 76 | 1018.2 |
| 20260905175533 | 66 | 239 | 2.6 | 7.0 | 0.00 | 0.00 | 0.00 | 75 | 1018.1 |
| 20260905174529 | 67 | 243 | 4.3 | 8.7 | 0.00 | 0.00 | 0.00 | 74 | 1018.1 |
| 20260905173525 | 67 | 239 | 4.3 | 8.7 | 0.00 | 0.00 | 0.00 | 73 | 1018.0 |
| 20260905172521 | 68 | 237 | 5.2 | 11.3 | 0.00 | 0.00 | 0.00 | 71 | 1017.9 |
| 20260905171517 | 68 | 236 | 4.3 | 8.7 | 0.00 | 0.00 | 0.00 | 71 | 1017.8 |
| 20260905170533 | 68 | 243 | 5.2 | 11.3 | 0.00 | 0.00 | 0.00 | 70 | 1017.8 |
| 20260905165529 | 69 | 242 | 5.2 | 11.3 | 0.00 | 0.00 | 0.00 | 69 | 1017.7 |
| 20260905164526 | 68 | 245 | 5.2 | 11.3 | 0.00 | 0.00 | 0.00 | 71 | 1017.7 |
| 20260905163522 | 68 | 244 | 3.5 | 7.0 | 0.00 | 0.00 | 0.00 | 71 | 1017.5 |
| 20260905162518 | 69 | 236 | 2.6 | 7.0 | 0.00 | 0.00 | 0.00 | 71 | 1017.5 |
| 20260905161534 | 69 | 244 | 1.7 | 7.0 | 0.00 | 0.00 | 0.00 | 71 | 1017.5 |
| 20260905160530 | 69 | 237 | 0.9 | 7.0 | 0.00 | 0.00 | 0.00 | 71 | 1017.4 |
| 20260905155526 | 69 | 233 | 4.3 | 8.7 | 0.00 | 0.00 | 0.00 | 71 | 1017.6 |
| 20260905154523 | 69 | 232 | 4.3 | 8.7 | 0.00 | 0.00 | 0.00 | 71 | 1017.7 |
| 20260905153519 | 69 | 236 | 2.6 | 7.0 | 0.00 | 0.00 | 0.00 | 70 | 1017.5 |
| 20260905152516 | 69 | 240 | 4.3 | 8.7 | 0.00 | 0.00 | 0.00 | 70 | 1017.4 |
| 20260905151552 | 69 | 65 | 4.3 | 11.3 | 0.00 | 0.00 | 0.00 | 70 | 1017.5 |
| 20260905150528 | 69 | 242 | 4.3 | 8.7 | 0.00 | 0.00 | 0.00 | 72 | 1017.5 |
| 20260905145604 | 69 | 245 | 5.2 | 8.7 | 0.00 | 0.00 | 0.00 | 73 | 1017.6 |
| 20260905144520 | 69 | 44 | 2.6 | 7.0 | 0.00 | 0.00 | 0.00 | 74 | 1017.5 |
| 20260905143516 | 68 | 47 | 3.5 | 7.0 | 0.00 | 0.00 | 0.00 | 75 | 1017.5 |
| 20260905142533 | 68 | 255 | 1.7 | 8.7 | 0.00 | 0.00 | 0.00 | 75 | 1017.4 |
| 20260905141529 | 68 | 267 | 3.5 | 8.7 | 0.00 | 0.00 | 0.00 | 74 | 1017.5 |
| 20260905140526 | 68 | 250 | 4.3 | 8.7 | 0.00 | 0.00 | 0.00 | 74 | 1017.3 |
| 20260905135522 | 68 | 298 | 3.5 | 11.3 | 0.00 | 0.00 | 0.00 | 74 | 1017.3 |
| 20260905134518 | 67 | 263 | 3.5 | 8.7 | 0.00 | 0.00 | 0.00 | 74 | 1017.3 |
| 20260905133535 | 66 | 253 | 2.6 | 7.0 | 0.00 | 0.00 | 0.00 | 75 | 1017.5 |
| 20260905132531 | 65 | 244 | 2.6 | 7.0 | 0.00 | 0.00 | 0.00 | 76 | 1017.7 |
| 20260905131528 | 66 | 291 | 2.6 | 7.0 | 0.00 | 0.00 | 0.00 | 75 | 1017.5 |
| 20260905130524 | 67 | 305 | 4.3 | 11.3 | 0.00 | 0.00 | 0.00 | 74 | 1017.8 |
| 20260905125520 | 69 | 287 | 7.8 | 13.0 | 0.00 | 0.00 | 0.00 | 69 | 1018.0 |
| 20260905124517 | 77 | 274 | 10.4 | 21.7 | 0.00 | 0.00 | 0.00 | 43 | 1017.8 |
| 20260905123534 | 80 | 273 | 9.6 | 20.0 | 0.00 | 0.00 | 0.00 | 37 | 1017.5 |
| 20260905122529 | 83 | 289 | 6.1 | 14.8 | 0.00 | 0.00 | 0.00 | 37 | 1016.9 |
| 20260905121526 | 84 | 294 | 5.2 | 14.8 | 0.00 | 0.00 | 0.00 | 36 | 1016.7 |
| 20260905120522 | 84 | 301 | 7.0 | 14.8 | 0.00 | 0.00 | 0.00 | 36 | 1016.8 |
| 20260905115519 | 84 | 299 | 6.1 | 14.8 | 0.00 | 0.00 | 0.00 | 36 | 1016.8 |
| 20260905114515 | 84 | 300 | 7.8 | 17.4 | 0.00 | 0.00 | 0.00 | 36 | 1016.7 |
| 20260905113531 | 85 | 304 | 8.7 | 20.0 | 0.00 | 0.00 | 0.00 | 35 | 1016.5 |
| 20260905112528 | 83 | 299 | 7.8 | 20.0 | 0.00 | 0.00 | 0.00 | 35 | 1016.5 |
| 20260905111524 | 84 | 297 | 8.7 | 21.7 | 0.00 | 0.00 | 0.00 | 35 | 1016.5 |
| 20260905110520 | 85 | 309 | 9.6 | 24.3 | 0.00 | 0.00 | 0.00 | 35 | 1016.8 |
| 20260905105517 | 84 | 280 | 7.8 | 17.4 | 0.00 | 0.00 | 0.00 | 37 | 1016.7 |
| 20260905104533 | 83 | 297 | 4.3 | 11.3 | 0.00 | 0.00 | 0.00 | 41 | 1016.8 |
| 20260905103529 | 82 | 289 | 7.8 | 17.4 | 0.00 | 0.00 | 0.00 | 42 | 1017.2 |
| 20260905102525 | 81 | 301 | 11.3 | 24.3 | 0.00 | 0.00 | 0.00 | 42 | 1017.3 |
| 20260905101521 | 81 | 328 | 7.8 | 24.3 | 0.00 | 0.00 | 0.00 | 45 | 1017.1 |
| 20260905100518 | 80 | 306 | 7.0 | 17.4 | 0.00 | 0.00 | 0.00 | 50 | 1017.3 |
| 20260905095534 | 80 | 301 | 10.4 | 20.0 | 0.00 | 0.00 | 0.00 | 50 | 1017.3 |
| 20260905094530 | 80 | 295 | 12.2 | 24.3 | 0.00 | 0.00 | 0.00 | 51 | 1017.3 |
| 20260905093527 | 80 | 307 | 13.9 | 28.7 | 0.00 | 0.00 | 0.00 | 51 | 1017.1 |
| 20260905092522 | 81 | 314 | 15.6 | 28.7 | 0.00 | 0.00 | 0.00 | 49 | 1016.9 |
| 20260905091538 | 84 | 318 | 13.9 | 30.4 | 0.00 | 0.00 | 0.00 | 46 | 1016.4 |
| 20260905090533 | 87 | 296 | 10.4 | 24.3 | 0.00 | 0.00 | 0.00 | 43 | 1016.1 |
| 20260905085530 | 85 | 267 | 13.9 | 24.3 | 0.00 | 0.00 | 0.00 | 43 | 1015.9 |
| 20260905084526 | 86 | 261 | 10.4 | 20.0 | 0.00 | 0.00 | 0.00 | 43 | 1015.7 |
| 20260905083522 | 86 | 278 | 11.3 | 21.7 | 0.00 | 0.00 | 0.00 | 43 | 1015.3 |
| 20260905082518 | 86 | 262 | 9.6 | 17.4 | 0.00 | 0.00 | 0.00 | 43 | 1015.1 |
| 20260905081534 | 86 | 260 | 7.8 | 17.4 | 0.00 | 0.00 | 0.00 | 43 | 1014.9 |
| 20260905080530 | 85 | 270 | 5.2 | 13.0 | 0.00 | 0.00 | 0.00 | 44 | 1014.7 |
| 20260905075527 | 84 | 239 | 3.5 | 8.7 | 0.00 | 0.00 | 0.00 | 45 | 1014.5 |
| 20260905074543 | 82 | 247 | 3.5 | 8.7 | 0.00 | 0.00 | 0.00 | 47 | 1014.5 |
| 20260905073515 | 82 | 224 | 2.6 | 11.3 | 0.00 | 0.00 | 0.00 | 48 | 1014.3 |
| 20260905072532 | 81 | 270 | 2.6 | 7.0 | 0.00 | 0.00 | 0.00 | 49 | 1014.1 |
| 20260905071528 | 80 | 238 | 2.6 | 8.7 | 0.00 | 0.00 | 0.00 | 50 | 1013.8 |
| 20260905070604 | 80 | 220 | 2.6 | 7.0 | 0.00 | 0.00 | 0.00 | 50 | 1013.6 |
| 20260905065520 | 79 | 236 | 3.5 | 11.3 | 0.00 | 0.00 | 0.00 | 51 | 1013.7 |
| 20260905064516 | 77 | 240 | 4.3 | 8.7 | 0.00 | 0.00 | 0.00 | 52 | 1013.8 |
| 20260905063532 | 77 | 239 | 3.5 | 8.7 | 0.00 | 0.00 | 0.00 | 53 | 1013.6 |
| 20260905062548 | 76 | 236 | 0.9 | 7.0 | 0.00 | 0.00 | 0.00 | 54 | 1013.4 |
| 20260905061545 | 75 | 245 | 3.5 | 7.0 | 0.00 | 0.00 | 0.00 | 54 | 1013.8 |
| 20260905060520 | 75 | 236 | 3.5 | 8.7 | 0.00 | 0.00 | 0.00 | 55 | 1013.8 |
| 20260905055517 | 74 | 230 | 2.6 | 8.7 | 0.00 | 0.00 | 0.00 | 55 | 1013.7 |
| 20260905054533 | 74 | 221 | 2.6 | 8.7 | 0.00 | 0.00 | 0.00 | 54 | 1013.6 |
| 20260905053529 | 75 | 195 | 2.6 | 7.0 | 0.00 | 0.00 | 0.00 | 54 | 1013.5 |
| 20260905052525 | 73 | 192 | 1.7 | 4.3 | 0.00 | 0.00 | 0.00 | 56 | 1013.5 |
| 20260905051521 | 71 | 184 | 0.9 | 1.7 | 0.00 | 0.00 | 0.00 | 59 | 1013.5 |
| 20260905050518 | 70 | 171 | 0.9 | 4.3 | 0.00 | 0.00 | 0.00 | 60 | 1013.4 |
| 20260905045555 | 68 | 187 | 0.0 | 4.3 | 0.00 | 0.00 | 0.00 | 61 | 1013.5 |
| 20260905044531 | 67 | 183 | 0.0 | 1.7 | 0.00 | 0.00 | 0.00 | 62 | 1013.4 |
| 20260905043527 | 66 | 173 | 0.0 | 1.7 | 0.00 | 0.00 | 0.00 | 64 | 1013.2 |
| 20260905042524 | 65 | 189 | 0.0 | 1.7 | 0.00 | 0.00 | 0.00 | 65 | 1013.1 |
| 20260905041520 | 65 | 167 | 0.0 | 1.7 | 0.00 | 0.00 | 0.00 | 65 | 1013.1 |
| 20260905040516 | 65 | 169 | 0.0 | 1.7 | 0.00 | 0.00 | 0.00 | 65 | 1013.1 |
| 20260905035553 | 66 | 175 | 0.9 | 4.3 | 0.00 | 0.00 | 0.00 | 64 | 1013.0 |
| 20260905034529 | 66 | 169 | 0.9 | 1.7 | 0.00 | 0.00 | 0.00 | 63 | 1012.9 |
| 20260905033525 | 66 | 175 | 0.0 | 1.7 | 0.00 | 0.00 | 0.00 | 63 | 1012.9 |
| 20260905032521 | 66 | 182 | 1.7 | 4.3 | 0.00 | 0.00 | 0.00 | 63 | 1012.8 |
| 20260905031517 | 66 | 185 | 0.9 | 1.7 | 0.00 | 0.00 | 0.00 | 63 | 1012.9 |
| 20260905030534 | 67 | 194 | 0.9 | 4.3 | 0.00 | 0.00 | 0.00 | 63 | 1013.0 |
| 20260905025530 | 67 | 191 | 1.7 | 4.3 | 0.00 | 0.00 | 0.00 | 62 | 1012.9 |
| 20260905024526 | 67 | 186 | 0.0 | 4.3 | 0.00 | 0.00 | 0.00 | 62 | 1012.9 |
| 20260905023522 | 67 | 191 | 0.9 | 1.7 | 0.00 | 0.00 | 0.00 | 62 | 1012.8 |
| 20260905022539 | 67 | 165 | 0.0 | 1.7 | 0.00 | 0.00 | 0.00 | 62 | 1013.0 |
| 20260905021535 | 67 | 171 | 0.9 | 1.7 | 0.00 | 0.00 | 0.00 | 62 | 1012.8 |
| 20260905020531 | 68 | 191 | 0.0 | 1.7 | 0.00 | 0.00 | 0.00 | 62 | 1012.8 |
| 20260905015527 | 68 | 168 | 0.0 | 1.7 | 0.00 | 0.00 | 0.00 | 61 | 1012.8 |
| 20260905014524 | 68 | 189 | 1.7 | 4.3 | 0.00 | 0.00 | 0.00 | 60 | 1012.6 |
| 20260905013520 | 68 | 186 | 1.7 | 7.0 | 0.00 | 0.00 | 0.00 | 60 | 1012.8 |
| 20260905012557 | 68 | 191 | 1.7 | 7.0 | 0.00 | 0.00 | 0.00 | 61 | 1012.8 |
| 20260905011553 | 68 | 183 | 1.7 | 4.3 | 0.00 | 0.00 | 0.00 | 61 | 1012.9 |